HB9TJR-3 Weather Reports


time (UTC)temp
F
wind
direction
speed
knots
gust
knots
rain 1hr
in
rain 24hr
in
rain mn
in
humidity
%
barometer
mb
20260507203133 44 0 0.0 0.0 0.00 0.00 0.00 87 864.3
20260507201533 44 0 0.0 0.0 0.00 0.00 0.00 86 864.2
20260507195933 45 0 0.0 0.0 0.00 0.00 0.00 85 864.0
20260507194333 45 0 0.0 0.0 0.00 0.00 0.00 86 863.9
20260507192733 45 0 0.0 0.0 0.00 0.00 0.00 87 863.8
20260507191133 45 0 0.0 0.0 0.00 0.00 0.00 87 863.6
20260507185533 45 0 0.0 0.0 0.00 0.00 0.00 89 863.7
20260507183933 45 0 0.0 0.0 0.00 0.00 0.00 90 863.6
20260507182333 45 0 0.0 0.0 0.00 0.00 0.00 90 863.6
20260507180733 46 0 0.0 0.0 0.00 0.00 0.00 92 863.6
20260507175133 45 0 0.0 0.0 0.00 0.00 0.00 91 863.5
20260507173533 45 0 0.0 0.0 0.00 0.00 0.00 91 863.6
20260507171933 46 0 0.0 0.0 0.00 0.00 0.00 91 863.6
20260507170333 46 0 0.0 0.0 0.00 0.00 0.00 92 863.7
20260507164733 46 0 0.0 0.0 0.00 0.00 0.00 92 863.7
20260507163133 46 0 0.0 0.0 0.00 0.00 0.00 95 863.8
20260507161533 47 0 0.0 0.0 0.00 0.00 0.00 95 863.8
20260507155933 46 0 0.0 0.0 0.00 0.00 0.00 94 863.7
20260507154333 46 0 0.0 0.0 0.00 0.00 0.00 95 863.7
20260507152733 46 0 0.0 0.0 0.00 0.00 0.00 94 863.6
20260507151134 47 0 0.0 0.0 0.00 0.00 0.00 95 863.7
20260507145533 46 0 0.0 0.0 0.00 0.00 0.00 95 863.8
20260507143933 46 0 0.0 0.0 0.00 0.00 0.00 95 863.7
20260507142333 47 0 0.0 0.0 0.00 0.00 0.00 93 863.8
20260507140733 47 0 0.0 0.0 0.00 0.00 0.00 97 863.8
20260507135133 46 0 0.0 0.0 0.00 0.00 0.00 96 863.8
20260507133533 46 0 0.0 0.0 0.00 0.00 0.00 93 864.0
20260507131933 47 0 0.0 0.0 0.00 0.00 0.00 92 863.9
20260507130333 48 0 0.0 0.0 0.00 0.00 0.00 95 864.0
20260507124733 47 0 0.0 0.0 0.00 0.00 0.00 91 863.9
20260507123133 48 0 0.0 0.0 0.00 0.00 0.00 90 863.9
20260507121533 47 0 0.0 0.0 0.00 0.00 0.00 90 863.9
20260507115933 46 0 0.0 0.0 0.00 0.00 0.00 91 863.8
20260507114333 47 0 0.0 0.0 0.00 0.00 0.00 90 863.8
20260507112733 47 0 0.0 0.0 0.00 0.00 0.00 88 863.7
20260507111133 46 0 0.0 0.0 0.00 0.00 0.00 93 863.8
20260507105533 46 0 0.0 0.0 0.00 0.00 0.00 90 863.8
20260507103933 46 0 0.0 0.0 0.00 0.00 0.00 92 863.8
20260507102333 45 0 0.0 0.0 0.00 0.00 0.00 90 863.7
20260507100735 46 0 0.0 0.0 0.00 0.00 0.00 92 863.6
20260507095134 46 0 0.0 0.0 0.00 0.00 0.00 88 863.6
20260507093533 46 0 0.0 0.0 0.00 0.00 0.00 91 863.7
20260507091933 46 0 0.0 0.0 0.00 0.00 0.00 92 863.6
20260507090333 46 0 0.0 0.0 0.00 0.00 0.00 91 863.4
20260507084733 46 0 0.0 0.0 0.00 0.00 0.00 92 863.4
20260507083133 46 0 0.0 0.0 0.00 0.00 0.00 90 863.3
20260507081533 45 0 0.0 0.0 0.00 0.00 0.00 92 863.3
20260507075933 45 0 0.0 0.0 0.00 0.00 0.00 89 863.1
20260507074333 45 0 0.0 0.0 0.00 0.00 0.00 91 863.1
20260507072733 44 0 0.0 0.0 0.00 0.00 0.00 91 863.1
20260507071133 43 0 0.0 0.0 0.00 0.00 0.00 94 863.1
20260507065533 43 0 0.0 0.0 0.00 0.00 0.00 94 863.0
20260507063933 43 0 0.0 0.0 0.00 0.00 0.00 92 862.8
20260507062334 43 0 0.0 0.0 0.00 0.00 0.00 92 862.8
20260507060733 43 0 0.0 0.0 0.00 0.00 0.00 93 862.6
20260507055133 43 0 0.0 0.0 0.00 0.00 0.00 93 862.5
20260507053533 43 0 0.0 0.0 0.00 0.00 0.00 92 862.5
20260507051933 43 0 0.0 0.0 0.00 0.00 0.00 91 862.4
20260507050333 43 0 0.0 0.0 0.00 0.00 0.00 91 862.3
20260507044733 43 0 0.0 0.0 0.00 0.00 0.00 91 862.1
20260507043133 43 0 0.0 0.0 0.00 0.00 0.00 91 862.0
20260507041533 43 0 0.0 0.0 0.00 0.00 0.00 89 861.8
20260507035933 43 0 0.0 0.0 0.00 0.00 0.00 90 861.8
20260507034334 43 0 0.0 0.0 0.00 0.00 0.00 90 861.8
20260507032733 43 0 0.0 0.0 0.00 0.00 0.00 89 861.7
20260507031133 43 0 0.0 0.0 0.00 0.00 0.00 88 861.7
20260507025533 43 0 0.0 0.0 0.00 0.00 0.00 88 861.8
20260507023933 43 0 0.0 0.0 0.00 0.00 0.00 89 861.8
20260507022335 43 0 0.0 0.0 0.00 0.00 0.00 89 861.5
20260507020733 43 0 0.0 0.0 0.00 0.00 0.00 88 861.5
20260507015134 43 0 0.0 0.0 0.00 0.00 0.00 88 861.3
20260507013533 43 0 0.0 0.0 0.00 0.00 0.00 88 861.2
20260507011933 43 0 0.0 0.0 0.00 0.00 0.00 88 861.3
20260507010334 43 0 0.0 0.0 0.00 0.00 0.00 87 861.3
20260507004734 43 0 0.0 0.0 0.00 0.00 0.00 86 861.3
20260507003133 43 0 0.0 0.0 0.00 0.00 0.00 86 861.4
20260507001533 43 0 0.0 0.0 0.00 0.00 0.00 86 861.4
20260506235933 44 0 0.0 0.0 0.00 0.00 0.00 85 861.3
20260506234333 43 0 0.0 0.0 0.00 0.00 0.00 86 861.3
20260506232733 43 0 0.0 0.0 0.00 0.00 0.00 86 861.3
20260506231134 43 0 0.0 0.0 0.00 0.00 0.00 85 861.3
20260506225533 42 0 0.0 0.0 0.00 0.00 0.00 87 861.2
20260506223933 43 0 0.0 0.0 0.00 0.00 0.00 86 861.3
20260506222333 43 0 0.0 0.0 0.00 0.00 0.00 88 861.2
20260506220733 43 0 0.0 0.0 0.00 0.00 0.00 88 861.2
20260506215133 43 0 0.0 0.0 0.00 0.00 0.00 88 861.1
20260506213533 42 0 0.0 0.0 0.00 0.00 0.00 89 861.0
20260506211934 42 0 0.0 0.0 0.00 0.00 0.00 89 861.1
20260506210333 41 0 0.0 0.0 0.00 0.00 0.00 91 861.1
20260506204733 41 0 0.0 0.0 0.00 0.00 0.00 90 861.0